Погода в Дачном

Россия / Республика Мордовия     54°33′19″N   42°38′03″E
темп.,
°C
ветер,
м/с
пор.,
м/с
влажн.,
%
обл.,
%
осадки,
мм/ч
давл.,
гПа
погр.,
м
21 июня, пн
пн2100:00+18юз11845 0.0 102211
03:00+17зсз008715 0.0 102211
06:00+20св007890 0.0 102256
09:00+26ююз115860 0.0 1022510
12:00+29зюз2246100 0.0 10221461
15:00+30зсз224482 0.0 10211698
18:00+28ссв1266100 0.0 102183
21:00+22ююв1282100 0.0 102215
22 июня, вт
вт2200:00+20ю2284100 0.0 102214
03:00+19ю1187100 0.0 102211
06:00+21ююв118073 0.0 102269
09:00+28ююв12579 0.0 1022673
12:00+31ю12395 0.0 10221928
15:00+32юз12370 0.0 10212410
18:00+29вюв026086 0.0 1021142
21:00+23ююв11770 0.0 102111
23 июня, ср
ср2300:00+21ююв22830 0.0 102115
03:00+19ююз018939 0.0 102211
06:00+23в01795 0.0 102274
09:00+28ссз115526 0.0 1022633
12:00+31ссз224336 0.0 10212084
15:00+32ссз333929 0.0 10201937
18:00+30сз11573 0.0 1020298
21:00+24ссз11806 0.0 102011
24 июня, чт
чт2400:00+22сз11822 0.0 102011
03:00+20ссз22850 0.1 102022
06:00+23зсз11784 0.1 102080
09:00+28зсз116091 0.1 1020468
12:00+31сз224986 0.1 10191482
15:00+32ссз3342100 0.1 10182036
18:00+19ю71396100 5.2 1019390
21:00+18зюз2894100 10.8 1018144
25 июня, пт
пт2500:00+18сз249486 0.3 101888
03:00+18зсз11945 1.1 101717
06:00+20зюз129321 1.6 1017100
09:00+26зсз236819 1.6 1017457
12:00+30зсз225535 0.0 10161003
15:00+32сз23485 0.0 10161789
18:00+30зюз23633 0.0 1013244
21:00+23ююз11870 0.4 101411